Location: Ca��n la Puerta
(32.5440°N, 116.6804°W)
Time: 01:52:47
(UTC+00:00)

Cosmos 1805 Rocket - Pass Details

Date: 15 June 2021
Orbit: 606 x 630 km, 82.5° (Epoch: 02 August)

Event Time Altitude Azimuth Distance (km) Brightness Sun altitude
Rises 11:58:25 0° 178° (S) 2,852 6.6 -8.1°
Reaches altitude 10° 12:00:38 10° 175° (S) 1,955 5.8 -7.7°
Maximum altitude 12:04:54 64° 95° (E) 681 4.0 -7.0°
Drops below altitude 10° 12:09:14 10° 13° (NNE) 1,982 6.9 -6.2°
Sets 12:11:29 0° 11° (N) 2,895 7.7 -5.8°
